Pagina principale
METAR-TAF:

METAR-TAF

Aeroporti :

Capri, Italia

latitudine: 40-33N, longitudine: 014-12E, altezza: 160 m

Osservazione

Il bollettino è stato emesso 22 minuti fa, alle 15:55 UTC
Vento 3 kt da ovest
Temperature 28°C
Umidità 70%
Pressione 1016 hPa
Visibilità 10 km o più
nessuna nube inferiore a 1500 m e nessun cumulonembo

METAR: LIQC 181555Z 27003KT CAVOK 28/22 Q1016 RMK SKC QUK 1 QUL 0 VIS MAR 20 KM VIS MIN 9999

Ora: 18:17 (16:17 UTC)


TAF: mancante

Osservazioni e previsioni meteorologiche di più di 4000 aeroporti (messaggi METAR e TAF).

Le stazioni disponibili sono rappresentate dai dischi gialli e rossi sulla carta.

Puntare il mouse per vedere il nome della stazione.

Clicca sopra per visualizzare le osservazioni e previsioni meteorologiche.

Per cambiare la mappa : fare clic sui pulsanti verdi con una croce nera per ingrandire, il pulsante verde con un trattino per diminuire, o sulla freccia verde per le mappe adiacenti.


METAR-TAF: